CW3794 Weather Reports


Display with metric or nautical units.
time (UTC)temp
F
wind
direction
speed
MPH
gust
MPH
rain 1hr
in
rain 24hr
in
rain mn
in
humidity
%
barometer
mb
20180816140235 83 245 0.0 0.0 0.00 0.00 0.00 61 1016.9
20180816135243 83 245 0.0 1.0 0.00 0.00 0.00 61 1016.8
20180816133225 83 246 0.0 0.0 0.00 0.00 0.00 61 1016.7
20180816132257 82 246 0.0 1.0 0.00 0.00 0.00 61 1016.6
20180816131236 82 247 0.0 0.0 0.00 0.00 0.00 61 1016.4
20180816130259 83 248 0.0 1.0 0.00 0.00 0.00 61 1016.2
20180816125217 83 248 0.0 0.0 0.00 0.00 0.00 61 1016.1
20180816124218 83 242 0.0 3.0 0.00 0.00 0.00 62 1015.9
20180816123230 82 244 0.0 4.0 0.00 0.00 0.00 62 1015.8
20180816122242 82 237 0.0 6.0 0.00 0.00 0.00 63 1015.6
20180816121240 81 144 0.0 1.0 0.00 0.00 0.00 64 1015.4
20180816115257 80 127 0.0 0.0 0.00 0.00 0.00 62 1015.1
20180816114233 80 126 0.0 0.0 0.00 0.00 0.00 61 1014.9
20180816113241 81 126 0.0 0.0 0.00 0.00 0.00 60 1014.9
20180816112254 81 126 0.0 0.0 0.00 0.00 0.00 59 1014.9
20180816110241 81 126 0.0 0.0 0.00 0.00 0.00 58 1014.7
20180816104234 81 126 0.0 0.0 0.00 0.00 0.00 58 1014.4
20180816100239 82 127 0.0 0.0 0.00 0.00 0.00 56 1014.3
20180816094240 83 127 0.0 0.0 0.00 0.00 0.00 55 1014.4
20180816092252 83 126 0.0 0.0 0.00 0.00 0.00 54 1014.3
20180816090233 83 126 0.0 0.0 0.00 0.00 0.00 53 1014.1
20180816085225 84 127 0.0 0.0 0.00 0.00 0.00 52 1014.2
20180816084302 84 126 0.0 0.0 0.00 0.00 0.00 50 1014.2
20180816080254 85 126 0.0 0.0 0.00 0.00 0.00 47 1014.1
20180816074257 86 126 0.0 0.0 0.00 0.00 0.00 47 1014.0
20180816073243 85 152 0.0 3.0 0.00 0.00 0.00 47 1013.9
20180816072247 85 156 0.0 0.0 0.00 0.00 0.00 48 1014.0
20180816064252 86 159 0.0 1.0 0.00 0.00 0.00 49 1013.9
20180816063243 86 159 0.0 0.0 0.00 0.00 0.00 50 1013.9
20180816060317 86 164 0.0 0.0 0.00 0.00 0.00 49 1013.7
20180816053248 86 164 0.0 0.0 0.00 0.00 0.00 48 1013.4
20180816052258 87 164 0.0 0.0 0.00 0.00 0.00 48 1013.2
20180816051320 87 164 0.0 0.0 0.00 0.00 0.00 47 1013.1
20180816044146 87 164 0.0 0.0 0.00 0.00 0.00 45 1013.0
20180816043228 88 164 0.0 0.0 0.00 0.00 0.00 44 1013.0
20180816042257 88 164 0.0 0.0 0.00 0.00 0.00 43 1012.9
20180816041257 88 164 0.0 0.0 0.00 0.00 0.00 42 1012.9
20180816040230 88 164 0.0 0.0 0.00 0.00 0.00 41 1012.9
20180816035301 88 164 0.0 0.0 0.00 0.00 0.00 41 1012.8
20180816033250 88 164 0.0 0.0 0.00 0.00 0.00 40 1012.5
20180816031238 89 164 0.0 0.0 0.00 0.00 0.00 41 1012.3
20180816015249 92 161 0.0 1.0 0.00 0.08 0.00 37 1011.1
20180816014245 93 161 1.0 4.0 0.00 0.08 0.00 38 1010.9
20180816011241 95 190 0.0 3.0 0.00 0.08 0.00 40 1010.8
20180816010246 95 202 0.0 3.0 0.00 0.08 0.00 40 1010.8
20180816005318 95 247 0.0 2.0 0.00 0.08 0.00 37 1010.7
20180816001248 96 181 0.0 2.0 0.00 0.08 0.00 36 1010.7
20180815234325 96 177 0.0 1.0 0.00 0.08 0.00 38 1010.9
20180815233313 95 142 0.0 2.0 0.00 0.08 0.00 37 1010.9
20180815231321 94 123 0.0 4.0 0.00 0.08 0.00 38 1011.1
20180815225326 94 184 0.0 2.0 0.00 0.08 0.00 37 1011.2
20180815215305 93 162 1.0 5.0 0.00 0.08 0.00 43 1012.5
20180815211323 90 218 0.0 0.0 0.00 0.08 0.00 48 1013.1
20180815210256 90 218 0.0 1.0 0.00 0.08 0.00 47 1013.3
20180815205330 90 218 0.0 2.0 0.00 0.08 0.00 47 1013.4
20180815203250 90 111 0.0 5.0 0.00 0.08 0.00 47 1013.7
20180815201321 91 119 2.0 7.0 0.00 0.08 0.00 46 1014.1
20180815193326 92 184 0.0 3.0 0.00 0.08 0.00 43 1014.4
20180815191303 90 68 0.0 5.0 0.00 0.08 0.00 44 1014.7
20180815185306 89 236 0.0 3.0 0.00 0.08 0.00 45 1014.9
20180815184343 89 254 0.0 0.0 0.00 0.08 0.00 47 1015.1
20180815182333 88 263 0.0 4.0 0.00 0.08 0.00 48 1015.1
20180815181317 87 255 0.0 2.0 0.00 0.08 0.00 48 1015.2
20180815174351 87 86 0.0 0.0 0.00 0.08 0.00 49 1015.2
20180815173410 87 86 0.0 0.0 0.00 0.08 0.00 49 1015.1
20180815171402 86 84 0.0 0.0 0.00 0.08 0.00 50 1015.2
20180815170434 85 85 0.0 0.0 0.00 0.08 0.00 52 1015.1
20180815164416 86 98 1.0 4.0 0.00 0.08 0.00 51 1015.2
20180815162435 84 138 0.0 4.0 0.00 0.00 0.00 56 1015.1
20180815161434 83 152 0.0 5.0 0.00 0.00 0.00 56 1015.1
20180815160423 83 119 0.0 4.0 0.00 0.00 0.00 54 1015.0
20180815155412 83 115 0.0 6.0 0.00 0.00 0.00 54 1015.0
20180815152437 82 71 0.0 0.0 0.00 0.00 0.00 56 1014.7
20180815151438 82 52 0.0 0.0 0.00 0.00 0.00 57 1014.5
20180815150416 82 0 0.0 0.0 0.00 0.00 0.00 58 1014.4
20180815143430 81 0 0.0 0.0 0.00 0.00 0.00 59 1014.1